Location: Krasnoyarskiy Pitomnik
(51.1333°N, 71.6167°E)
Time: 09:53:54
(UTC+00:00)

Altair - Pass Details

Date: 13 April 2024
Orbit: 1501 x 1682 km, 47.2° (Epoch: 17 May)

Event Time Altitude Azimuth Distance (km) Brightness Sun altitude
Rises 22:40:19 0° 287° (WNW) 4,758 9.7 -14.8°
Reaches altitude 10° 22:44:02 10° 276° (W) 3,744 9.1 -14.4°
Maximum altitude 22:51:21 26° 225° (SW) 2,627 8.1 -13.4°
Drops below altitude 10° 22:58:31 10° 172° (S) 3,654 9.2 -12.5°
Sets 23:02:07 0° 161° (SSE) 4,624 9.9 -12.0°
